Location: Dattensoll
(49.9928°N, 9.8954°E)
Time: 01:59:22
(UTC+00:00)

Cosmos 2218 Rocket - Pass Details

Date: 19 May 2025
Orbit: 954 x 1006 km, 82.9° (Epoch: 23 June)

Event Time Altitude Azimuth Distance (km) Brightness Sun altitude
Rises 20:31:50 0° 351° (N) 3,740 8.2 -11.1°
Reaches altitude 10° 20:34:25 10° 354° (N) 2,782 7.3 -11.4°
Maximum altitude 20:40:48 68° 78° (ENE) 1,064 4.1 -12.0°
Enters shadow 20:46:02 15° 159° (SSE) 2,363 5.4 -12.5°
